Fulton, NY

5:24 AM EDT on August 24, 2017 (GMT -0400)
Oswego County

Weather History for KFZY - January, 2013

Change the Weather History Date:

Monday, January 28, 2013

  Actual Average (KSYR) Record (KSYR)
Temperature  
Mean Temperature 26 °F -  
Max Temperature 33 °F 31 °F 64 °F (1916)
Min Temperature 19 °F 16 °F -18 °F (2005)
Degree Days  
Heating Degree Days 39    
Moisture  
Dew Point 24 °F    
Average Humidity 87    
Maximum Humidity 96    
Minimum Humidity 60    
Precipitation  
Precipitation 0.22 in - - ()
Sea Level Pressure  
Sea Level Pressure 29.99 in    
Wind  
Wind Speed 6 mph (SE)    
Max Wind Speed 12 mph    
Max Gust Speed 20 mph    
Visibility 3 miles    
Events Fog , Rain , Snow    
Averages and records for this station are not official NWS values.
T = Trace of Precipitation, MM = Missing Value Source: NWS Daily Summary

Daily Weather History Graph

Daily Weather History Graph

Search for Another Location

Airport or City:

Trip Planner

Search our weather history database for the weather conditions in past years. The results will help you decide how hot, cold, wet, or windy it might be!

Date:

Astronomy

Jan. 28, 2013 Rise Set
Actual Time 7:25 AM EST 5:12 PM EST
Civil Twilight 6:54 AM EST 5:43 PM EST
Nautical Twilight 6:20 AM EST 6:17 PM EST
Astronomical Twilight 5:46 AM EST 6:51 PM EST
Moon 7:09 PM EST (1/28) 7:45 AM EST (1/28)
Length of Visible Light 10h 48m
Length of Day
9h 47m
Full, 98% of the Moon is Illuminated
Jan 28
Full
Feb 3
Last Quarter
Feb 10
New
Feb 17
First Quarter
Feb 25
Full

Hourly Weather History & Observations

Time (EST) Temp. Windchill Dew Point Humidity Pressure Visibility Wind Dir Wind Speed Gust Speed Precip Events Conditions
12:54 AM 19.0 °F 10.0 °F 8.1 °F 62% 30.41 in 10.0 mi SE 6.9 mph - N/A   Scattered Clouds
1:54 AM 19.0 °F 11.1 °F 8.1 °F 62% 30.38 in 10.0 mi East 5.8 mph - N/A   Clear
2:54 AM 19.0 °F 11.1 °F 8.1 °F 62% 30.35 in 10.0 mi ESE 5.8 mph - N/A   Overcast
3:54 AM 19.9 °F 14.9 °F 9.0 °F 62% 30.32 in 10.0 mi Variable 3.5 mph - N/A   Overcast
4:54 AM 21.0 °F 13.4 °F 10.0 °F 63% 30.30 in 10.0 mi ESE 5.8 mph - N/A   Overcast
5:54 AM 21.9 °F 15.7 °F 10.9 °F 63% 30.30 in 10.0 mi SE 4.6 mph - N/A   Overcast
6:54 AM 21.9 °F 13.4 °F 12.0 °F 66% 30.25 in 10.0 mi ESE 6.9 mph - 0.00 in   Overcast
7:54 AM 24.1 °F 16.0 °F 12.0 °F 60% 30.21 in 10.0 mi SE 6.9 mph - N/A   Overcast
8:40 AM 24.8 °F 16.1 °F 14.0 °F 64% 30.16 in 2.5 mi ESE 8.1 mph - 0.00 in Snow Light Snow
8:54 AM 24.1 °F 15.2 °F 15.1 °F 69% 30.18 in 2.0 mi ESE 8.1 mph - 0.00 in Snow Light Snow
8:58 AM 24.8 °F 15.3 °F 15.8 °F 69% 30.15 in 1.0 mi ESE 9.2 mph - 0.00 in Snow Light Snow
9:07 AM 23.0 °F 13.9 °F 17.6 °F 80% 30.14 in 0.5 mi ESE 8.1 mph - 0.00 in Snow Snow
9:19 AM 23.0 °F 14.7 °F 19.4 °F 86% 30.14 in 0.2 mi Variable 6.9 mph - 0.01 in Fog , Snow Snow
9:54 AM 23.0 °F 14.7 °F 19.9 °F 88% 30.14 in 1.0 mi Variable 6.9 mph 16.1 mph 0.03 in Snow Light Snow
10:04 AM 24.8 °F 16.1 °F 19.4 °F 80% 30.09 in 0.8 mi ESE 8.1 mph 16.1 mph 0.01 in Snow Light Snow
10:10 AM 24.8 °F 14.6 °F 19.4 °F 80% 30.10 in 1.0 mi ESE 10.4 mph 16.1 mph 0.01 in Snow Light Snow
10:17 AM 24.8 °F 16.1 °F 19.4 °F 80% 30.09 in 2.0 mi SE 8.1 mph 16.1 mph 0.01 in Snow Light Snow
10:25 AM 24.8 °F 16.1 °F 19.4 °F 80% 30.09 in 4.0 mi ESE 8.1 mph - 0.01 in   Overcast
10:54 AM 25.0 °F 14.2 °F 21.0 °F 85% 30.09 in 5.0 mi ESE 11.5 mph 19.6 mph 0.01 in   Overcast
11:36 AM 26.6 °F 16.2 °F 21.2 °F 80% 30.03 in 2.5 mi ESE 11.5 mph 17.3 mph 0.00 in Rain Light Freezing Rain
11:54 AM 26.1 °F 17.6 °F 23.0 °F 88% 30.04 in 2.5 mi ESE 8.1 mph 16.1 mph 0.00 in Rain Light Freezing Rain
12:07 PM 26.6 °F 17.5 °F 24.8 °F 93% 30.01 in 1.8 mi ESE 9.2 mph 17.3 mph 0.01 in Rain Light Freezing Rain
12:17 PM 26.6 °F 18.2 °F 24.8 °F 93% 30.00 in 1.8 mi ESE 8.1 mph - 0.01 in Rain Light Freezing Rain
12:41 PM 26.6 °F 17.5 °F 24.8 °F 93% 29.99 in 1.2 mi ESE 9.2 mph - 0.04 in Rain Light Freezing Rain
12:49 PM 28.4 °F 21.2 °F 24.8 °F 86% 29.99 in 1.2 mi ESE 6.9 mph - 0.05 in Rain Light Freezing Rain
12:54 PM 28.0 °F 20.8 °F 26.1 °F 92% 30.01 in 1.5 mi Variable 6.9 mph - 0.06 in Rain Light Freezing Rain
1:05 PM 28.4 °F 21.2 °F 24.8 °F 86% 29.97 in 2.0 mi Variable 6.9 mph - 0.01 in Rain Light Freezing Rain
1:28 PM 28.4 °F 22.2 °F 26.6 °F 93% 29.95 in 3.0 mi Variable 5.8 mph - 0.02 in Rain Light Freezing Rain
1:49 PM 28.4 °F 19.7 °F 26.6 °F 93% 29.95 in 1.8 mi SE 9.2 mph 16.1 mph 0.02 in Rain Light Freezing Rain
1:54 PM 28.0 °F 20.0 °F 26.1 °F 92% 29.96 in 1.5 mi SE 8.1 mph 16.1 mph 0.02 in Rain Light Freezing Rain
2:04 PM 28.4 °F 21.2 °F 26.6 °F 93% 29.93 in 3.0 mi SE 6.9 mph - 0.00 in Rain Light Freezing Rain
2:15 PM 28.4 °F 22.2 °F 26.6 °F 93% 29.93 in 2.0 mi ESE 5.8 mph - 0.01 in Rain Light Freezing Rain
2:23 PM 28.4 °F 20.4 °F 26.6 °F 93% 29.92 in 1.8 mi SE 8.1 mph - 0.01 in Rain Light Freezing Rain
2:44 PM 28.4 °F 21.2 °F 26.6 °F 93% 29.92 in 2.0 mi ESE 6.9 mph - 0.01 in Rain Light Freezing Rain
2:54 PM 28.0 °F 20.0 °F 26.1 °F 92% 29.93 in 2.0 mi ESE 8.1 mph - 0.01 in Rain Light Freezing Rain
2:57 PM 28.4 °F 22.2 °F 26.6 °F 93% 29.91 in 1.8 mi ESE 5.8 mph - 0.00 in Rain Light Freezing Rain
3:16 PM 28.4 °F 21.2 °F 26.6 °F 93% 29.90 in 2.0 mi ESE 6.9 mph - 0.00 in Rain Light Freezing Rain
3:29 PM 28.4 °F 21.2 °F 26.6 °F 93% 29.90 in 2.5 mi Variable 6.9 mph - 0.00 in   Overcast
3:39 PM 28.4 °F 22.2 °F 26.6 °F 93% 29.89 in 3.0 mi Variable 5.8 mph - 0.00 in   Overcast
3:54 PM 28.0 °F 20.8 °F 26.1 °F 92% 29.92 in 2.5 mi Variable 6.9 mph - 0.00 in   Overcast
4:04 PM 28.4 °F 20.4 °F 26.6 °F 93% 29.89 in 1.8 mi ESE 8.1 mph - N/A   Overcast
4:07 PM 28.4 °F 21.2 °F 26.6 °F 93% 29.89 in 1.5 mi SE 6.9 mph - 0.00 in Rain Light Freezing Rain
4:17 PM 28.4 °F 20.4 °F 26.6 °F 93% 29.89 in 1.2 mi ESE 8.1 mph - 0.00 in Rain Light Freezing Rain
4:30 PM 28.4 °F 20.4 °F 26.6 °F 93% 29.89 in 1.5 mi ESE 8.1 mph - 0.00 in Rain Light Freezing Rain
4:35 PM 28.4 °F 22.2 °F 26.6 °F 93% 29.89 in 1.8 mi Variable 5.8 mph - 0.00 in Rain Light Freezing Rain
4:50 PM 28.4 °F 22.2 °F 26.6 °F 93% 29.88 in 1.2 mi SE 5.8 mph - 0.01 in Rain Light Freezing Rain
4:54 PM 28.9 °F 21.9 °F 27.0 °F 92% 29.90 in 1.5 mi ESE 6.9 mph - 0.01 in Rain Light Freezing Rain
4:56 PM 28.4 °F 22.2 °F 26.6 °F 93% 29.88 in 1.5 mi ESE 5.8 mph - 0.00 in Rain Light Freezing Rain
5:07 PM 28.4 °F 22.2 °F 26.6 °F 93% 29.88 in 2.5 mi Variable 5.8 mph - 0.00 in Rain Light Freezing Rain
5:14 PM 30.2 °F 22.6 °F 26.6 °F 86% 29.88 in 3.0 mi SE 8.1 mph - 0.00 in Rain Light Freezing Rain
5:17 PM 30.2 °F 25.4 °F 26.6 °F 86% 29.88 in 2.5 mi SE 4.6 mph - 0.00 in Rain Light Freezing Rain
5:31 PM 30.2 °F 25.4 °F 28.4 °F 93% 29.88 in 2.0 mi Variable 4.6 mph - 0.00 in Rain Light Freezing Rain
5:49 PM 30.2 °F 26.7 °F 28.4 °F 93% 29.88 in 1.8 mi Variable 3.5 mph - 0.01 in Rain Light Freezing Rain
5:54 PM 30.0 °F 26.5 °F 28.0 °F 92% 29.91 in 2.0 mi Variable 3.5 mph - 0.01 in Rain Light Freezing Rain
6:01 PM 30.2 °F 25.4 °F 28.4 °F 93% 29.88 in 1.8 mi SE 4.6 mph - 0.00 in Rain Light Freezing Rain
6:11 PM 30.2 °F 25.4 °F 28.4 °F 93% 29.88 in 2.0 mi SE 4.6 mph - 0.00 in Rain Light Freezing Rain
6:35 PM 30.2 °F 26.7 °F 28.4 °F 93% 29.89 in 2.5 mi ESE 3.5 mph - 0.01 in   Overcast
6:42 PM 30.2 °F 23.4 °F 28.4 °F 93% 29.89 in 3.0 mi SE 6.9 mph - 0.01 in   Overcast
6:54 PM 30.0 °F 25.2 °F 28.9 °F 96% 29.90 in 2.5 mi SE 4.6 mph - 0.01 in Rain Light Freezing Rain
7:25 PM 30.2 °F 24.3 °F 28.4 °F 93% 29.88 in 3.0 mi ESE 5.8 mph - 0.00 in Rain Light Freezing Rain
7:32 PM 30.2 °F 26.7 °F 28.4 °F 93% 29.88 in 3.0 mi ESE 3.5 mph - 0.00 in Rain Light Freezing Rain
7:47 PM 30.2 °F 26.7 °F 28.4 °F 93% 29.88 in 1.8 mi ESE 3.5 mph - 0.01 in Rain Light Freezing Rain
7:54 PM 30.9 °F - 28.9 °F 92% 29.90 in 1.5 mi Calm Calm - 0.01 in Rain Light Freezing Rain
8:54 PM 32.0 °F - 30.0 °F 92% 29.92 in 1.5 mi Calm Calm - 0.01 in Rain Light Freezing Rain
9:17 PM 32.0 °F - 30.2 °F 93% 29.90 in 1.5 mi Calm Calm - 0.02 in   Overcast
9:40 PM 32.0 °F - 30.2 °F 93% 29.90 in 1.8 mi Calm Calm - 0.02 in   Overcast
9:54 PM 32.0 °F 28.7 °F 30.9 °F 96% 29.93 in 2.0 mi SSE 3.5 mph - 0.03 in   Overcast
10:12 PM 32.0 °F - 30.2 °F 93% 29.91 in 1.8 mi Calm Calm - 0.00 in   Overcast
10:43 PM 33.8 °F 30.8 °F 30.2 °F 87% 29.93 in 2.0 mi South 3.5 mph - 0.01 in Rain Light Rain
10:54 PM 33.1 °F - 32.0 °F 96% 29.95 in 1.8 mi Calm Calm - 0.01 in Rain Light Rain
11:21 PM 33.8 °F 30.8 °F 32.0 °F 93% 29.93 in 2.0 mi South 3.5 mph - 0.00 in   Overcast
11:32 PM 33.8 °F - 32.0 °F 93% 29.94 in 1.8 mi Calm Calm - 0.00 in   Overcast
11:54 PM 33.1 °F - 30.9 °F 92% 29.97 in 1.5 mi Calm Calm - 0.00 in   Overcast